Latest Coastal Weather Observations for Charles Point

IDD60701

Issued at 2:31 pm CST Tuesday 21 April 2015 (issued every 10 minutes, with the page automatically refreshed every 10 minutes)

About coastal observations | Map of coastal stations | Coastal observations for NT | Marine services | Other Formats
Station Details ID: 014031 Name: CHARLES POINT Lat: -12.39 Lon: 130.63 Height: 14.0 m
Data from the previous 72 hours. | See also: Recent months for locations in Northern Territory
Date/Time
CST
Temp

°C
Wind Pressure Rain
since 9am
mm
Weather Cloud Vis
km
Sea
Height
m
Swell
Dir
 
Speed
knots
Gust
knots
hPa Trend Height
m
Period
s
Dir
21/02:30pm 31.6 ESE 6 10 1010.1 - 0.0 - - - - - - -
21/02:00pm 31.2 ESE 6 10 1010.3 - 0.0 - - - - - - -
21/01:30pm 31.4 ESE 7 12 1010.5 - 0.0 - - - - - - -
21/01:00pm 30.7 ESE 7 13 1010.9 - 0.0 - - - - - - -
21/12:30pm 30.2 SE 9 15 1011.4 - 0.0 - - - - - - -
21/12:00pm 29.8 ESE 7 15 1011.7 - 0.0 - - - - - - -
21/11:30am 29.8 SE 8 15 1012.2 - 0.0 - - - - - - -
21/11:00am 29.1 SE 8 15 1012.6 - 0.0 - - - - - - -
21/10:30am 28.9 SE 8 17 1012.9 - 0.0 - - - - - - -
21/10:00am 28.2 SE 8 15 1013.1 - 0.0 - - - - - - -
21/09:30am 27.8 SE 6 13 1012.7 - 0.0 - - - - - - -
21/09:00am 26.9 SE 6 9 1012.5 - 0.0 - - - - - - -
21/08:30am 25.9 SSE 5 9 1012.2 - 0.0 - - - - - - -
21/08:00am 25.2 SSE 5 9 1011.9 - 0.0 - - - - - - -
21/07:30am 24.4 SSE 5 7 1011.5 - 0.0 - - - - - - -
21/07:00am 24.1 SSE 5 8 1011.1 - 0.0 - - - - - - -
21/06:30am 24.5 SSE 5 8 1010.9 - 0.0 - - - - - - -
21/06:00am 25.0 SSE 6 9 1010.5 - 0.0 - - - - - - -
21/05:30am 25.7 SSE 6 11 1010.3 - 0.0 - - - - - - -
21/05:00am 25.8 SE 6 11 1010.3 - 0.0 - - - - - - -
21/04:30am 25.5 SE 5 8 1010.1 - 0.0 - - - - - - -
21/04:00am 25.9 SE 5 8 1010.1 - 0.0 - - - - - - -
21/03:30am 26.3 SSE 5 8 1010.2 - 0.0 - - - - - - -
21/03:00am 27.1 SSE 6 11 1010.4 - 0.0 - - - - - - -
21/02:30am 27.6 SSE 7 13 1010.6 - 0.0 - - - - - - -
21/02:00am 27.3 SSE 5 9 1010.8 - 0.0 - - - - - - -
21/01:30am 27.2 SSE 5 9 1010.9 - 0.0 - - - - - - -
21/01:00am 27.4 SSE 5 8 1011.2 - 0.0 - - - - - - -
21/12:30am 27.5 SSE 5 9 1011.4 - 0.0 - - - - - - -
21/12:00am 27.5 SSE 5 8 1011.5 - 0.0 - - - - - - -
 
Date/Time
CST
Temp

°C
Wind Pressure Rain
since 9am
mm
Weather Cloud Vis
km
Sea
Height
m
Swell
Dir
 
Speed
knots
Gust
knots
hPa Trend Height
m
Period
s
Dir
20/11:30pm 27.4 SSE 4 7 1011.5 - 0.0 - - - - - - -
20/11:00pm 27.2 SSE 4 6 1011.4 - 0.0 - - - - - - -
20/10:30pm 27.6 SSE 3 6 1011.5 - 0.0 - - - - - - -
20/10:00pm 28.0 SE 3 5 1011.6 - 0.0 - - - - - - -
20/09:30pm 27.9 SSE 3 5 1011.5 - 0.0 - - - - - - -
20/09:00pm 27.9 SSE 4 6 1011.4 - 0.0 - - - - - - -
20/08:30pm 27.1 SSE 4 6 1010.9 - 0.0 - - - - - - -
20/08:00pm 27.8 SSE 4 6 1010.4 - 0.0 - - - - - - -
20/07:30pm 27.3 SSE 3 4 1009.9 - 0.0 - - - - - - -
20/07:00pm 28.0 SSE 3 4 1009.5 - 0.0 - - - - - - -
20/06:30pm 29.0 SSE 3 5 1009.2 - 0.0 - - - - - - -
20/06:00pm 30.8 SE 3 5 1009.1 - 0.0 - - - - - - -
20/05:30pm 31.6 ESE 4 10 1008.8 - 0.0 - - - - - - -
20/05:00pm 32.6 ESE 5 10 1008.5 - 0.0 - - - - - - -
20/04:30pm 32.8 E 6 10 1008.4 - 0.0 - - - - - - -
20/04:00pm 33.0 ESE 6 11 1008.3 - 0.0 - - - - - - -
20/03:30pm 32.7 ESE 8 12 1008.6 - 0.0 - - - - - - -
20/03:00pm 33.3 E 8 15 1008.9 - 0.0 - - - - - - -
20/02:30pm 32.6 ESE 9 16 1009.5 - 0.0 - - - - - - -
20/02:00pm 32.6 ESE 7 12 1009.9 - 0.0 - - - - - - -
20/01:30pm 32.1 ESE 9 16 1010.5 - 0.0 - - - - - - -
20/01:00pm 32.6 ESE 7 13 1010.8 - 0.0 - - - - - - -
20/12:30pm 31.8 ESE 9 17 1011.2 - 0.0 - - - - - - -
20/12:00pm 31.4 ESE 9 18 1011.4 - 0.0 - - - - - - -
20/11:30am 31.0 ESE 8 18 1011.6 - 0.0 - - - - - - -
20/11:00am 30.3 SE 9 15 1011.8 - 0.0 - - - - - - -
20/10:30am 29.6 ESE 9 16 1011.9 - 0.0 - - - - - - -
20/10:00am 28.7 SE 8 16 1011.9 - 0.0 - - - - - - -
20/09:30am 28.8 SE 8 15 1012.0 - 0.0 - - - - - - -
20/09:00am 27.9 SE 8 15 1011.9 - 0.0 - - - - - - -
20/08:30am 27.2 SE 7 13 1012.2 - 0.0 - - - - - - -
20/08:00am 26.2 SSE 6 11 1012.2 - 0.0 - - - - - - -
20/07:30am 25.7 SSE 6 10 1012.0 - 0.0 - - - - - - -
20/07:00am 25.1 SSE 4 6 1011.8 - 0.0 - - - - - - -
20/06:30am 25.5 SSE 4 6 1011.5 - 0.0 - - - - - - -
20/06:00am 25.9 SSE 4 6 1011.0 - 0.0 - - - - - - -
20/05:30am 26.2 SSE 5 7 1010.9 - 0.0 - - - - - - -
20/05:00am 26.5 SSE 6 9 1010.7 - 0.0 - - - - - - -
20/04:30am 26.4 SSE 5 7 1010.7 - 0.0 - - - - - - -
20/04:00am 26.2 SSE 5 7 1011.0 - 0.0 - - - - - - -
20/03:30am 26.5 S 4 6 1011.4 - 0.0 - - - - - - -
20/03:00am 26.5 S 3 5 1011.4 - 0.0 - - - - - - -
20/02:30am 26.7 S 3 4 1011.1 - 0.0 - - - - - - -
20/02:00am 27.0 SSW 4 5 1010.9 - 0.0 - - - - - - -
20/01:30am 27.1 S 3 5 1011.3 - 0.0 - - - - - - -
20/01:00am 26.8 SSW 3 5 1011.9 - 0.0 - - - - - - -
20/12:30am 26.7 SSW 2 3 1012.4 - 0.0 - - - - - - -
20/12:00am 26.7 S 3 3 1012.6 - 0.0 - - - - - - -
 
Date/Time
CST
Temp

°C
Wind Pressure Rain
since 9am
mm
Weather Cloud Vis
km
Sea
Height
m
Swell
Dir
 
Speed
knots
Gust
knots
hPa Trend Height
m
Period
s
Dir
19/11:30pm 26.8 SSW 2 3 1012.5 - 0.0 - - - - - - -
19/11:00pm 27.2 SSW 2 3 1012.2 - 0.0 - - - - - - -
19/10:30pm 27.4 SW 2 3 1011.9 - 0.0 - - - - - - -
19/10:00pm 27.5 SW 2 4 1011.9 - 0.0 - - - - - - -
19/09:30pm 27.3 WSW 2 4 1011.8 - 0.0 - - - - - - -
19/09:00pm 26.8 SW 3 5 1011.5 - 0.0 - - - - - - -
19/08:30pm 26.6 SW 2 3 1011.1 - 0.0 - - - - - - -
19/08:00pm 26.8 CALM 0 0 1010.9 - 0.0 - - - - - - -
19/07:30pm 27.5 NNW 1 2 1010.6 - 0.0 - - - - - - -
19/07:00pm 28.3 CALM 0 2 1010.1 - 0.0 - - - - - - -
19/06:30pm 30.4 N 4 5 1009.9 - 0.0 - - - - - - -
19/06:00pm 30.8 N 5 7 1009.7 - 0.0 - - - - - - -
19/05:30pm 31.0 N 7 8 1009.4 - 0.0 - - - - - - -
19/05:00pm 31.4 N 6 8 1009.1 - 0.0 - - - - - - -
19/04:30pm 31.8 N 6 8 1009.2 - 0.0 - - - - - - -
19/04:00pm 31.8 N 5 7 1009.1 - 0.0 - - - - - - -
19/03:30pm 31.6 NNE 6 9 1009.1 - 0.0 - - - - - - -
19/03:00pm 31.5 NNE 6 10 1009.2 - 0.0 - - - - - - -
19/02:30pm 31.4 NNE 7 10 1009.6 - 0.0 - - - - - - -
19/02:00pm 32.2 NE 6 10 1009.9 - 0.0 - - - - - - -
19/01:30pm 31.9 NNE 6 8 1010.1 - 0.0 - - - - - - -
19/01:00pm 32.0 NE 5 7 1010.4 - 0.0 - - - - - - -
19/12:30pm 31.8 NE 5 8 1010.7 - 0.0 - - - - - - -
19/12:00pm 31.7 NE 6 8 1011.2 - 0.0 - - - - - - -
19/11:30am 32.0 ENE 5 9 1011.6 - 0.0 - - - - - - -
19/11:00am 31.6 E 4 7 1012.1 - 0.0 - - - - - - -
19/10:30am 30.9 E 5 9 1012.6 - 0.0 - - - - - - -
19/10:00am 29.9 E 5 9 1012.8 - 0.0 - - - - - - -
19/09:30am 29.9 ESE 3 7 1012.8 - 0.0 - - - - - - -
19/09:00am 28.8 SE 3 5 1012.8 - 1.2 - - - - - - -
19/08:30am 27.5 SSE 4 6 1012.7 - 1.2 - - - - - - -
19/08:00am 26.5 SSE 4 6 1012.6 - 1.2 - - - - - - -
19/07:30am 25.3 SSE 5 7 1012.2 - 1.2 - - - - - - -
19/07:00am 25.4 SSE 4 6 1012.0 - 1.2 - - - - - - -
19/06:30am 25.2 SE 4 6 1011.4 - 1.2 - - - - - - -
19/06:00am 24.8 SSE 4 5 1011.2 - 1.2 - - - - - - -
19/05:30am 24.7 SSE 3 5 1010.9 - 1.2 - - - - - - -
19/05:00am 24.9 SSE 3 4 1011.1 - 1.2 - - - - - - -
19/04:30am 25.2 SE 2 4 1010.6 - 1.2 - - - - - - -
19/04:00am 25.8 ENE 3 7 1010.8 - 1.2 - - - - - - -
19/03:30am 25.5 ENE 2 4 1011.0 - 1.2 - - - - - - -
19/03:00am 24.8 S 2 3 1011.1 - 1.2 - - - - - - -
19/02:30am 25.3 ESE 2 2 1011.2 - 1.2 - - - - - - -
19/02:00am 25.3 S 2 3 1011.4 - 1.2 - - - - - - -
19/01:30am 26.8 ENE 6 13 1011.8 - 0.8 - - - - - - -
19/01:00am 28.4 NNW 7 10 1011.7 - 0.2 - - - - - - -
19/12:30am 25.3 N 1 3 1011.9 - 0.2 - - - - - - -
19/12:00am 25.1 S 1 2 1012.1 - 0.2 - - - - - - -
 
Date/Time
CST
Temp

°C
Wind Pressure Rain
since 9am
mm
Weather Cloud Vis
km
Sea
Height
m
Swell
Dir
 
Speed
knots
Gust
knots
hPa Trend Height
m
Period
s
Dir
18/11:30pm 25.3 S 1 2 1012.1 - 0.2 - - - - - - -
18/11:00pm 25.4 S 2 2 1011.9 - 0.2 - - - - - - -
18/10:30pm 26.0 S 2 3 1011.8 - 0.2 - - - - - - -
18/10:00pm 26.6 SE 2 3 1011.8 - 0.2 - - - - - - -
18/09:30pm 27.0 SE 2 3 1011.8 - 0.2 - - - - - - -
18/09:00pm 28.2 NE 6 14 1011.3 - 0.2 - - - - - - -
18/08:30pm 27.1 WSW 1 1 1011.1 - 0.2 - - - - - - -
18/08:00pm 27.2 SW 1 2 1010.6 - 0.2 - - - - - - -
18/07:30pm 27.5 SW 2 2 1010.4 - 0.2 - - - - - - -
18/07:00pm 28.1 W 3 5 1010.1 - 0.2 - - - - - - -
18/06:30pm 29.0 NW 4 6 1009.8 - 0.2 - - - - - - -
18/06:00pm 29.3 NW 4 6 1009.4 - 0.2 - - - - - - -
18/05:30pm 29.3 NW 4 8 1009.1 - 0.2 - - - - - - -
18/05:00pm 29.7 NW 2 4 1008.8 - 0.2 - - - - - - -
18/04:30pm 29.5 NNW 2 4 1008.6 - 0.2 - - - - - - -
18/04:00pm 29.6 N 7 8 1008.6 - 0.2 - - - - - - -
18/03:30pm 29.4 N 6 7 1008.6 - 0.2 - - - - - - -
18/03:00pm 29.6 N 7 9 1009.0 - 0.2 - - - - - - -

Other Formats:

Comma delimited format used in spreadsheet applications
http://www.bom.gov.au/fwo/IDD60701/IDD60701.99510.axf

JavaScript Object Notation format (JSON) in row-major order
http://www.bom.gov.au/fwo/IDD60701/IDD60701.99510.json